Simultaneous Nadir Overpasses (SNOs) Predictions

Prediction of SNOs between NOAA-19 and TERRA Satellite Orbit:

Table of predicted SNOs for the next 14.0 days since TLE Epoch: 12/27/2014
Index Date (NOAA-19) Time (NOAA-19) Lat,Lon (NOAA-19) SZA (NOAA-19 ) Date (TERRA) Time (TERRA) Lat,Lon (TERRA) SZA (TERRA ) Distance(km) Time Diff (sec)
1 12/28/2014 05:11:42 -71.31, -75.29 85.50 12/28/2014 05:12:05 -71.34, -75.32 85.47 3.08 23
2 12/28/2014 06:02:39 71.19, 92.17 94.39 12/28/2014 06:01:33 71.20, 92.09 94.38 3.02 66
3 12/30/2014 09:55:18 -71.39,-146.29 85.55 12/30/2014 09:56:20 -71.39,-146.30 85.55 0.57 62
4 12/30/2014 10:46:16 71.30, 21.12 94.36 12/30/2014 10:45:47 71.30, 21.19 94.36 2.53 29
5 01/01/2015 15:29:51 71.31, -49.77 94.21 01/01/2015 15:30:02 71.32, -49.84 94.21 2.90 11
6 01/01/2015 16:20:47 -70.96, 118.09 86.15 01/01/2015 16:19:35 -71.04, 117.34 86.08 28.54 72
7 01/03/2015 20:13:27 71.39,-120.77 94.08 01/03/2015 20:14:16 71.36,-120.83 94.06 3.44 49
8 01/03/2015 21:04:27 -71.27, 46.69 86.05 01/03/2015 21:03:45 -71.30, 46.70 86.02 3.32 42
9 01/06/2015 00:57:12 71.93, 167.34 94.39 01/06/2015 00:58:22 71.81, 168.85 94.27 54.00 70
10 01/06/2015 01:48:02 -71.33, -24.29 86.22 01/06/2015 01:47:59 -71.31, -24.34 86.25 2.94 3
11 01/06/2015 02:38:46 70.44, 144.49 92.90 01/06/2015 02:37:39 70.50, 142.05 92.94 91.07 67
12 01/08/2015 06:31:37 -71.41, -95.29 86.42 01/08/2015 06:32:11 -71.40, -95.25 86.43 1.56 34
13 01/08/2015 07:22:36 71.27, 72.22
